SNUSat 2 (43782 NORAD) Tracking and Keplerian Element Data

This shows tracking and keplerian element data for the satellite.

Feedback or suggestion? Click here.




ElementValue
Catalog43782
NameSNUSat 2
Epoch Orbit562
Epoch Day10.43522603
Epoch Year2019
RAAN84.2158
Inclination97.7642
Eccentricity0.0014002
Argument of Perigee128.6161
Mean Anonmoly231.6315
Mean Motion14.94951573
Decay Rate3.7E-07
L11 43782U 18099AA 19010.43522603 .00000037 00000-0 86526-5 0 9999
L22 43782 97.7642 84.2158 0014002 128.6161 231.6315 14.94951573 5623

Live tracking and technical data element details for SNUSat 2 (NORAD 43782). SNUSat 2 can be tracked NOW for your location showing map with azimuth and elevation plus other details from your city location.

Track the satellite on the map from your city or location and see movement details for azimuth, elevation, latitude, longitude, range, height, and movement on the map or in text.







IsCatalogInMostPopularTable: catalog: 43782, numindb: 15
Update: records affected: 1



GetName: 43782 SNUSat 2

Hit Count: updated at: Thu, 17 Jan 2019 15:48:54 GMT